Theta_e
307 304 305 303 302 303 306 310 312 306 307 311 313 314 313 310 312 312 313 313 313 312 310 311 313 316 315 314 314 316 316 316 318 319 317 316 316 317 315 316 317 314 313 313
307 302 304 300 299 304 308 311 309 307 307 315 313 313 313 313 313 313 314 314 312 313 312 313 313 315 314 315 315 316 315 316 315 316 316 316 317 316 316 316 316 317 314 313
306 302 304 299 299 307 308 309 309 308 309 309 312 314 313 314 312 312 311 313 314 314 312 314 314 315 315 314 314 312 312 315 316 316 317 315 316 315 315 316 314 316 315 314
304 303 304 299 299 306 307 310 311 309 310 310 312 314 313 313 313 313 312 312 313 313 314 313 313 313 314 315 312 314 314 317 311 313 315 316 317 315 314 314 315 315 314 313
304 302 303 299 298 305 306 309 310 309 311 311 312 313 314 314 314 315 313 313 312 312 314 314 314 313 313 314 314 314 313 314 313 311 312 313 314 314 315 316 316 316 315 315
303 302 303 299 298 302 306 304 305 308 311 312 313 314 313 314 314 313 313 313 314 314 313 310 311 310 312 313 314 314 314 311 310 313 310 310 310 310 313 314 314 314 315 312
303 303 300 298 297 301 303 303 307 309 309 311 312 312 312 313 313 314 311 312 313 309 308 309 309 309 310 310 312 312 315 314 310 309 309 309 308 307 308 309 310 310 310 310
302 302 299 298 298 301 301 303 305 307 310 308 309 311 311 311 311 311 309 307 306 307 310 312 312 312 311 311 310 310 310 313 312 313 310 309 310 309 310 311 312 308 308 307
303 302 298 297 299 302 299 301 301 304 308 305 307 309 310 312 311 310 307 305 307 309 312 313 315 314 313 312 312 309 309 309 310 309 311 312 309 308 308 309 311 304 303 303
303 301 298 297 298 301 299 299 300 303 301 298 299 305 307 306 309 310 307 306 309 309 313 313 312 312 310 313 313 311 311 311 310 310 310 310 305 306 308 311 308 304 303 302
302 300 297 296 297 297 299 297 300 301 299 297 298 298 300 301 302 308 302 306 307 311 313 313 312 311 309 310 311 311 311 309 310 311 313 310 303 307 309 303 302 301 301 301
300 301 297 296 297 298 297 297 298 299 297 296 295 295 295 296 297 299 303 306 306 305 310 309 309 310 309 309 310 308 309 307 308 309 309 303 303 303 301 300 300 300 300 300
302 301 299 296 296 298 298 297 297 297 297 296 297 295 295 296 296 296 301 300 301 302 300 306 307 310 306 309 308 308 307 303 307 305 306 303 301 300 300 299 299 298 299 299
301 300 297 296 296 297 297 298 299 300 300 299 296 296 295 295 296 296 297 298 298 299 300 303 306 306 303 305 304 305 301 301 301 302 301 302 301 300 299 298 298 298 298 298
301 300 298 296 297 297 298 299 299 301 302 299 296 296 296 296 296 296 297 298 299 299 300 301 302 299 300 299 298 300 299 300 300 303 301 301 300 299 299 298 297 296 296 297
300 300 297 297 297 297 299 300 297 299 298 298 298 297 296 296 297 297 296 297 297 298 300 299 297 297 299 300 300 299 298 298 299 300 299 300 299 298 297 296 295 296 296 295
300 298 296 296 297 298 299 300 297 299 300 297 297 296 296 297 298 298 297 298 297 298 298 299 298 298 298 301 301 298 298 301 300 298 298 298 298 296 295 295 294 294 294 294
298 296 295 296 297 296 295 294 296 296 298 299 296 294 296 295 298 298 297 298 298 297 298 297 298 298 298 300 301 299 299 299 298 298 297 296 295 295 294 294 294 293 293 293
296 296 296 297 297 298 295 295 295 295 299 297 298 296 295 295 297 298 298 297 299 296 299 298 298 300 298 301 300 298 298 298 297 296 295 294 295 294 294 293 292 292 292 292
296 297 300 299 294 295 296 298 298 296 297 296 294 294 293 296 298 298 299 298 301 300 299 296 298 300 300 298 297 296 296 296 296 295 293 293 290 293 292 292 292 292 291 292
297 297 295 294 294 296 297 297 297 297 298 297 295 295 294 294 299 298 298 298 298 301 301 300 302 299 299 296 296 295 295 295 295 294 293 292 291 291 291 291 292 292 292 292
297 296 295 294 295 298 297 295 296 299 296 296 296 295 295 294 296 297 298 297 298 301 298 299 300 300 294 294 294 294 294 294 293 293 291 291 291 291 291 291 291 291 291 290
296 296 295 297 294 300 298 294 295 295 295 293 292 293 294 294 296 297 297 297 299 296 300 300 299 295 293 292 292 292 293 293 293 291 291 290 290 290 290 289 289 289 289 289
298 297 293 297 296 300 301 301 298 295 295 296 294 293 294 295 296 296 294 299 298 299 296 295 291 293 292 292 292 291 290 290 289 289 290 289 289 289 290 289 288 289 288 288
295 298 295 298 293 293 294 292 293 294 294 293 293 292 294 293 293 296 295 294 293 295 295 294 290 292 292 291 291 290 289 288 288 289 289 289 289 289 288 288 288 288 288 287
294 293 292 293 294 293 294 292 293 293 293 292 293 292 290 293 293 293 291 293 292 292 292 291 290 292 292 291 290 289 289 289 289 289 289 289 289 288 288 288 287 287 287 287
295 293 293 295 296 296 295 293 292 292 294 294 293 290 293 291 291 294 293 290 291 291 290 289 291 291 290 290 289 289 289 288 288 288 288 288 288 287 286 285 287 287 288 287
Wind_Speed
28 24 22 19 17 22 17 4 2 3 5 1 3 2 3 1 8 2 2 2 3 4 3 3 3 5 3 5 4 2 4 3 4 2 3 3 5 4 4 3 4 1 3 2
30 26 24 22 21 32 10 4 3 3 2 2 3 3 5 1 7 8 7 4 3 4 3 2 4 5 2 4 3 4 0 3 3 2 2 4 4 5 3 2 2 2 2 3
31 28 25 24 24 27 8 4 4 3 2 3 5 6 5 5 0 4 1 8 5 3 3 3 4 7 3 3 4 5 3 2 2 2 1 6 5 6 6 3 2 4 5 5
32 29 27 26 26 27 8 3 4 5 4 5 8 2 7 8 4 2 4 4 2 0 3 5 4 3 5 2 2 2 4 3 3 5 6 6 3 6 8 6 7 2 5 7
32 30 29 27 26 31 3 3 3 2 4 8 10 4 5 7 6 3 3 2 4 2 7 3 6 6 4 1 2 1 2 1 3 1 1 1 1 5 4 10 12 12 10 11
33 31 29 28 27 33 7 2 0 1 5 8 8 6 6 7 6 3 6 3 8 9 6 6 6 3 4 2 3 2 1 3 1 1 2 3 3 2 8 4 1 1 5 2
32 32 30 28 31 30 3 6 4 2 4 7 5 7 7 8 1 5 4 6 5 1 3 4 2 5 5 6 5 2 3 2 3 1 3 1 3 3 2 4 6 7 5 8
34 31 28 26 31 22 5 8 1 2 5 5 6 9 8 7 4 8 6 4 3 2 4 4 5 3 3 4 4 1 2 4 2 2 4 4 3 2 1 0 3 6 6 6
32 28 27 25 31 31 9 10 4 3 6 1 3 7 7 6 4 4 3 3 1 1 2 1 1 2 3 5 5 1 3 2 1 2 2 2 4 4 3 2 4 5 6 5
28 26 25 23 27 31 15 7 5 4 4 4 6 3 2 4 2 3 4 1 2 1 1 1 0 2 4 3 4 3 2 1 2 3 2 2 3 5 2 3 1 2 4 5
28 25 24 22 25 28 16 10 6 4 4 4 7 5 3 3 2 2 2 2 1 1 1 1 1 2 1 2 2 1 4 3 3 3 3 3 5 0 1 2 5 7 6 7
28 26 25 23 27 25 19 8 13 16 7 5 15 17 13 8 8 2 1 2 4 2 2 1 1 1 1 2 2 2 1 2 1 4 2 3 4 4 6 8 6 8 9 9
28 25 25 25 25 23 13 19 21 15 4 4 3 5 10 13 10 7 2 1 1 2 1 2 2 2 2 1 1 2 3 3 0 4 4 5 5 9 12 10 8 9 10 10
26 25 24 22 24 20 24 17 11 7 4 4 3 2 5 8 8 8 6 5 2 3 1 2 1 2 1 2 1 1 1 3 3 3 7 5 9 11 11 10 10 12 12 12
25 26 24 23 25 25 27 20 12 8 5 4 4 10 10 8 8 9 8 5 1 0 2 2 1 2 1 1 1 2 3 2 2 2 4 1 3 7 8 8 10 10 11 12
27 27 26 28 30 32 15 3 7 14 11 4 3 1 4 7 9 11 10 6 3 2 2 2 2 1 0 1 2 3 5 4 4 2 4 3 6 6 7 7 7 10 10 13
29 29 31 31 23 7 5 4 12 12 10 3 4 2 2 2 2 3 2 5 2 2 1 2 2 1 1 1 2 8 7 5 5 5 3 1 2 4 7 7 9 12 12 13
32 33 30 22 14 15 11 16 13 10 9 4 4 2 2 0 2 2 3 1 1 4 1 1 1 1 1 2 3 6 5 5 6 4 2 3 6 7 6 11 9 6 7 9
38 35 27 12 5 4 6 16 14 14 7 3 2 4 3 1 2 2 1 2 1 1 0 2 2 2 3 5 6 6 6 4 3 2 2 5 5 6 7 6 7 6 7 6
40 28 5 3 3 19 8 2 3 4 3 3 3 0 3 1 2 2 2 2 2 1 1 2 1 3 3 6 6 6 5 4 3 4 5 5 4 6 7 6 7 7 8 14
9 3 3 7 9 3 3 3 3 0 3 2 2 3 3 0 3 3 2 2 1 2 1 2 2 2 1 7 6 4 4 3 2 2 5 7 7 7 6 8 13 16 18 17
10 19 13 5 2 3 5 1 1 1 3 2 3 2 3 2 1 3 2 2 2 2 2 1 2 1 4 6 4 4 4 4 4 6 7 10 11 11 10 11 13 16 19 22
12 5 4 3 1 3 5 6 1 2 3 4 3 3 3 2 2 3 2 3 2 3 2 3 1 4 3 3 2 2 3 5 6 9 12 13 13 14 14 14 18 21 20 22
3 4 5 3 2 3 2 2 4 2 5 7 4 3 3 2 2 2 3 2 3 2 2 4 3 5 3 2 1 2 6 7 7 10 12 14 15 16 19 19 21 20 19 25
3 2 4 2 3 3 3 3 3 3 4 4 3 3 3 2 3 0 2 3 2 4 4 2 2 4 3 1 2 5 6 6 6 11 11 16 18 17 21 24 21 22 24 25
3 4 5 3 4 3 2 5 5 0 3 2 3 3 4 1 3 3 3 4 5 3 2 2 3 2 1 2 4 7 11 12 12 14 16 17 17 17 21 28 24 27 23 25
4 2 4 3 5 4 3 4 3 5 2 3 3 4 3 2 3 0 2 4 3 3 2 2 2 2 3 4 8 11 12 13 15 17 19 21 22 25 23 17 26 26 26 27
Wind_Direction
187 184 187 182 175 161 159 203 174 145 149 240 236 191 159 38 146 161 117 271 324 330 123 47 63 97 81 135 166 112 82 100 115 134 287 291 301 217 220 115 268 338 132 278
182 184 187 181 176 167 157 156 119 149 177 214 218 142 147 280 157 176 178 156 280 331 56 79 109 86 50 45 47 22 19 111 100 106 245 192 242 212 270 17 67 196 118 219
182 182 186 182 178 165 163 147 149 147 202 244 263 175 162 134 307 121 143 114 171 193 108 5 134 122 154 132 87 334 309 178 91 137 251 152 184 212 204 154 96 210 217 280
178 183 187 183 177 175 172 207 170 170 175 222 237 261 171 146 147 151 223 144 252 284 122 115 123 111 135 130 133 264 343 106 77 69 23 43 1 210 216 176 213 209 260 273
179 184 187 185 180 179 225 176 167 153 157 180 207 195 209 143 119 349 146 108 137 28 69 80 156 152 161 105 178 269 80 32 76 276 117 77 260 305 252 214 211 218 249 273
179 183 190 186 181 175 198 137 14 283 130 172 197 181 160 123 129 41 32 37 103 90 74 24 31 60 113 47 142 195 11 116 89 138 13 318 299 249 226 216 278 348 244 21
179 187 187 186 185 176 195 183 163 200 168 197 171 134 132 139 9 118 67 7 89 97 209 258 212 85 95 87 55 80 150 91 106 251 353 313 145 51 38 48 57 39 46 42
180 187 186 186 184 177 152 180 185 220 142 120 132 144 118 124 98 84 71 52 44 248 222 152 141 152 160 77 27 89 99 158 176 159 208 139 135 127 107 197 81 45 15 26
181 183 183 184 184 188 163 180 206 279 120 52 159 133 166 151 126 140 94 93 86 242 262 155 175 160 124 157 146 21 320 330 145 181 294 300 103 58 352 311 178 43 10 352
180 177 178 179 182 187 178 176 170 62 98 21 350 84 84 343 59 89 112 74 146 338 263 285 334 133 5 153 172 170 178 226 220 270 301 26 31 301 276 182 180 46 350 340
177 178 175 171 171 164 165 148 141 86 84 37 43 32 45 355 342 139 118 126 280 209 226 84 338 61 71 3 106 139 166 171 203 182 207 265 330 267 32 44 18 9 355 337
177 176 168 161 160 160 145 106 104 119 77 91 94 73 57 41 24 342 61 62 37 54 75 67 76 176 44 5 181 350 87 77 323 35 65 108 41 51 97 42 22 0 338 325
171 168 165 165 161 158 150 131 121 93 103 107 78 33 43 35 29 19 72 47 98 81 120 35 55 85 0 262 98 84 143 34 195 38 55 50 12 58 40 23 360 341 326 342
166 159 161 161 162 156 142 138 142 125 110 103 82 60 44 10 30 43 32 98 76 115 17 59 110 101 37 31 351 18 110 355 49 287 41 24 51 30 15 360 347 341 339 327
163 162 157 154 147 145 138 115 97 95 100 116 113 118 44 47 61 61 49 44 49 59 66 51 87 74 2 64 27 250 155 137 148 120 115 205 317 352 344 358 340 335 329 325
161 158 153 148 142 138 124 85 67 109 114 107 104 111 64 55 71 68 54 24 3 29 89 105 60 63 349 154 231 132 105 96 98 173 25 317 301 323 6 328 324 331 330 324
157 150 147 149 151 141 70 121 141 121 103 90 112 98 92 39 323 34 59 44 28 41 110 63 106 137 358 306 245 150 141 126 114 80 45 23 41 298 304 316 329 324 318 322
146 143 146 142 118 82 71 98 116 104 91 77 105 92 123 315 107 93 327 67 71 5 90 75 126 76 232 257 180 124 120 97 97 103 74 293 303 308 330 320 313 315 315 321
144 138 131 118 53 74 131 106 86 75 78 110 96 132 158 192 104 90 70 310 89 302 60 71 75 172 228 248 157 127 94 95 83 44 344 312 317 314 302 310 308 294 297 301
143 143 86 73 54 123 111 71 38 25 27 44 86 246 102 118 156 102 120 326 80 136 75 104 181 260 189 93 84 97 102 93 44 353 341 324 308 303 301 300 296 291 294 301
149 94 79 136 122 67 40 64 71 331 60 58 95 82 129 19 124 125 358 139 103 163 108 197 214 262 102 111 104 107 104 97 56 315 292 297 286 296 306 314 316 312 309 303
169 115 118 127 66 55 90 50 44 95 162 132 117 114 102 92 341 113 186 121 155 147 139 209 242 122 80 81 61 40 32 7 318 311 304 301 299 303 304 296 292 293 295 293
121 89 90 109 306 86 153 161 252 124 166 171 141 120 123 124 107 98 162 149 139 110 205 232 181 149 125 107 59 33 330 287 283 299 306 307 295 295 294 287 294 297 292 294
95 125 106 152 184 228 109 128 120 116 113 126 111 99 96 117 91 138 97 127 127 205 243 235 204 163 139 70 354 312 301 302 281 279 285 288 291 286 299 300 303 297 292 301
95 82 119 128 100 52 60 85 83 60 110 110 103 73 96 54 93 144 85 55 258 207 228 211 173 152 160 245 293 287 285 288 300 309 307 300 298 294 295 302 302 298 294 292
80 76 93 118 92 109 80 89 104 276 128 86 60 93 70 68 135 91 199 147 223 240 184 211 127 161 58 294 280 298 309 306 303 299 296 297 295 290 291 298 295 296 293 290
57 52 61 106 69 91 136 129 132 147 98 102 106 82 183 97 63 244 185 204 222 180 214 213 192 237 290 303 310 308 305 301 302 303 302 297 297 299 295 286 297 301 300 296